{"data":{"norad_id":69814,"intl_designator":"2026-153Q","name":"QIANFAN-215","alt_names":[],"object_type":"PAYLOAD","status":"ACTIVE","operator":null,"country":"PRC","launch_date":"2026-07-04","launch_site_code":"TAISC","launch_vehicle":null,"mission":null,"orbit_class":"UNKNOWN","rcs_meters":null,"size_class":null,"mass_kg":null,"dimensions":null,"purposes":[],"wikipedia_slug":null,"has_3d_model":false,"image_url":null,"decayed_at":null,"tle_current":{"epoch":"2026-09-19T22:15:27.639072Z","epoch_age_seconds":71147,"freshness":"FRESH","line1":"1 69814U 26153Q   26262.92740323  .00000041  00000+0  13839-4 0  9995","line2":"2 69814  88.9976 351.4071 0006815 358.6058   1.5109 14.15196393 11036","mean_motion":14.15196393,"eccentricity":0.0006815,"inclination_deg":88.9976,"raan_deg":351.4071,"arg_perigee_deg":358.6058,"mean_anomaly_deg":1.5109,"bstar":1.3839e-5,"rev_number":1103,"period_min":101.75266183002,"perigee_km":836.7238603202,"apogee_km":846.56442201562,"semimajor_km":7219.7811411679,"source":"CELESTRAK","updated_at":"2026-09-20T09:00:25.123052Z"}}}